Lid_Strength_Index
5 5 4 4 3 3 3 3 2 2 2 2 2 1 1 1 1 1 2 2 2 2 2 2 2 0 1 1 1 2 3 4 2
6 5 4 4 4 4 3 3 3 2 2 2 2 2 1 1 1 1 1 2 2 2 1 1 1 0 1 1 2 2 3 3 2
6 5 5 4 4 3 3 2 2 2 2 2 2 2 1 1 1 1 1 1 2 1 1 2 1 1 1 2 3 3 4 4 2
7 6 5 4 4 3 3 2 2 2 2 2 2 1 2 1 1 1 1 1 1 1 1 2 1 1 2 2 2 3 4 4 2
7 5 5 4 4 3 3 3 3 3 2 2 2 1 2 2 1 1 1 1 1 1 1 1 1 1 1 1 2 2 3 4 3
5 5 5 5 4 4 4 3 3 3 2 2 2 2 2 2 2 2 2 2 1 1 1 1 1 1 1 1 1 1 2 2 2
6 6 5 5 4 4 4 3 3 3 3 2 2 2 2 3 3 3 3 3 2 2 2 2 2 3 2 1 1 1 1 2 2
6 6 6 5 5 4 4 3 3 3 3 3 3 4 4 4 4 3 3 3 3 2 3 3 3 4 3 2 2 1 1 1 1
7 6 6 5 4 4 4 3 3 4 4 4 4 4 4 4 4 4 4 3 3 3 2 2 2 2 2 3 2 2 2 1 2
6 6 5 5 5 4 4 3 4 4 4 4 4 4 3 2 2 2 2 2 2 2 3 2 2 1 1 1 1 2 2 1 2
6 5 5 5 4 4 3 3 2 2 2 2 2 2 2 2 2 2 2 2 2 1 2 2 3 3 4 3 2 4 3 2 2
5 5 4 4 3 3 3 3 2 2 3 3 2 2 2 2 2 2 2 2 2 1 2 3 3 3 3 4 4 4 4 3 5
4 4 3 3 3 3 3 3 2 3 3 3 3 2 2 2 2 2 2 2 2 2 1 2 1 2 3 3 3 4 4 4 5
4 4 3 3 3 3 3 2 2 3 3 3 2 2 2 2 2 2 2 2 2 2 2 2 2 2 2 3 3 3 3 3 3
4 4 3 3 3 3 3 2 3 3 3 3 2 2 3 2 2 1 3 2 2 2 3 3 3 2 2 2 3 3 3 3 2
4 4 4 3 3 3 3 3 3 3 3 2 2 2 3 2 2 3 3 4 4 4 3 3 4 4 5 4 3 3 3 3 2
4 4 4 3 3 4 4 3 3 3 2 2 2 2 2 3 5 5 5 4 4 4 4 4 4 4 5 4 5 4 4 3 3
4 4 3 3 3 4 3 3 3 3 3 2 3 2 3 4 6 6 7 7 7 5 6 6 4 6 5 5 5 5 8 7 5
4 4 3 3 4 4 3 4 3 3 2 3 3 3 3 3 5 6 6 6 6 8 8 8 9 8 6 6 8 8 9 9 8
4 3 3 3 3 3 3 3 3 3 2 2 3 3 3 3 3 4 5 5 5 5 5 8 10 10 8 7 7 9 9 9 9